Regional Weather Roundup
Issued by NWS Grand Forks, ND

Home | Current Version | Previous Version | Text Only | Print | Product List | Glossary Off
Versions: 1 2 3 4 5 6 7 8 9 10 11 12 13 14 15 16 17 18 19 20 21 22 23 24 25 26 27 28 29 30 31 32 33 34 35 36 37 38 39 40 41 42 43 44 45 46 47 48 49 50

896
ASUS43 KFGF 231631
RWRFGF
PRAIRIE TO PINES  WEATHER ROUNDUP
NATIONAL WEATHER SERVICE EASTERN NORTH DAKOTA/GRAND FORKS ND
1100 AM CDT THU MAR 23 2017

 **SATELLITE DATA USED TO AUGMENT SKY COVER AT AUTOMATED STATIONS**
 *****  WEATHER ACROSS EASTERN NORTH DAKOTA  *****

CITY           SKY/WX    TMP DP  RH WIND       PRES   REMARKS
GRAND FORKS    LGT RAIN  37  30  75 S16       29.82F
GRAND FRKS AFB LGT RAIN  36  28  75 S15       29.83R
DEVILS LAKE    PTSUNNY   33  29  85 SE9       29.78R
FARGO          CLOUDY    41  32  70 S22G31    29.85F
WAHPETON ARPT  FAIR      39  27  60 SE20      29.86F
$$

 ***** WEATHER ACROSS CENTRAL AND WESTERN NORTH DAKOTA  *****

CITY           SKY/WX    TMP DP  RH WIND       PRES   REMARKS
BISMARCK       LGT RAIN  37  34  89 N6        29.77S FOG
MINOT          FAIR      41  32  70 W7        29.74R
JAMESTOWN      CLOUDY    38  33  82 S15       29.77F
MINOT AFB      CLOUDY    37  33  87 W3        29.74R
GARRISON         N/A     34  30  85 SW5       29.76R
WILLISTON      FAIR      39  34  82 CALM      29.76F
DICKINSON      CLOUDY    46  36  68 N12       29.72S
HETTINGER      PTSUNNY   41  38  89 NE10      29.72F
$$

 *****  OTHER AIRPORT OBSERVATIONS IN OUR AREA  *****

CITY           SKY/WX    TMP DP  RH WIND       PRES   REMARKS
WALHALLA       NOT AVBL
GRAFTON AIRPOR FAIR      36  28  75 S12       29.83S
VALLEY CITY AR CLOUDY    36  36 100 S10       29.80F
CANDO          NOT AVBL
CAVALIER APRT  NOT AVBL
GWINNER        SUNNY     43  32  65 MISG      29.79F
SHEYENNE NWR     N/A     40  28  61 S14       29.95S
ROLLA          FAIR      34  34 100 N9        29.74R
 ***** THE ABOVE OBSERVATIONS ARE NON NWS ARE NOT QUALITY
       CONTROLLED AND MAY MIS-REPORT RAIN FOR SNOW...
$$

  *****  WEATHER ACROSS NORTHERN MINNESOTA  *****

CITY           SKY/WX    TMP DP  RH WIND       PRES   REMARKS
FLAG ISLAND    FAIR      30  27  86 S12       29.85F WCI  21
WARROAD        FAIR      37  27  65 S9        29.86S
ROSEAU         FAIR      37  28  70 S15       29.85S
HALLOCK        FAIR      36  30  80 S15       29.82F
THF RVR FALLS    N/A    N/A N/A N/A MISG        N/A
BAUDETTE       FAIR      37  22  54 S14G21    29.88F
WASKISH        CLOUDY    39  25  56 S12G22    29.90S
CROOKSTON      FAIR      39  28  65 S16G23    29.84F
STEPHEN NDAWN    N/A     36  28  75 S14         N/A
GREENBUSH NDAW   N/A     37  27  65 S15         N/A
$$
  *****  WEATHER ACROSS CENTRAL AND WEST MINNESOTA  *****

CITY           SKY/WX    TMP DP  RH WIND       PRES   REMARKS
FOSSTON        FAIR      37  25  60 S12G21    29.85F
BEMIDJI        FAIR      39  23  53 S15       29.91S
PARK RAPIDS    CLOUDY    38  21  50 S17G25    29.93S
ELBOW LAKE     CLOUDY    38  25  59 SE22G28   29.89F
WADENA         CLOUDY    36  23  60 S8        29.95R
DETROIT LAKES  FAIR      37  27  65 S17G25    29.89F
MOORHEAD       FAIR      39  27  60 S23       29.86S
FERGUS FALLS   CLOUDY    39  25  56 SE18      29.93F
MORRIS MN      PTSUNNY   39  25  56 SE20      29.88F
STAPLES        CLOUDY    37  21  52 S15G22    29.96S
$$
  *****  WEATHER ELSEWHERE ACROSS MINNESOTA  *****

CITY           SKY/WX    TMP DP  RH WIND       PRES   REMARKS
DULUTH         CLOUDY    33  25  72 S10       30.04F WCI  25
INTRNTL FALLS  FAIR      37  22  54 S14G22    29.93F
ELY            CLOUDY    34  23  64 S14       30.01F WCI  24
CLOQUET        CLOUDY    36  21  55 S9        30.03F
WHEATON        FAIR      39  25  56 SE20      29.88F
BRAINERD       CLOUDY    38  22  52 S16G24    29.99S
HIBBING        CLOUDY    33  20  58 S13G22    30.00F WCI  24
ALEXANDRIA     CLOUDY    38  23  55 S16       29.95F
SAINT CLOUD    CLOUDY    39  24  55 SE18      30.01F
MINNEAPOLIS    CLOUDY    39  22  50 S20G26    30.07F
$$

  *****  WEATHER ACROSS SOUTH DAKOTA  *****

CITY           SKY/WX    TMP DP  RH WIND       PRES   REMARKS
SIOUX FALLS    CLOUDY    45  29  53 SE16      29.86F
BROOKINGS      CLOUDY    40  25  55 S18G24    29.83F
WATERTOWN      CLOUDY    39  26  59 S13G21    29.81F
HURON          CLOUDY    43  29  57 S17G28    29.77F
SISSETON         N/A     40  29  64 S17       29.83F
ABERDEEN       FAIR      41  28  60 S16       29.76F
MITCHELL       LGT RAIN  43  30  60 SE21G30   29.79F
PIERRE         FAIR      51  35  54 S18       29.68S
MOBRIDGE       FAIR      48  32  53 SE10      29.70R
RAPID CITY     FAIR      54  41  61 N13       29.64S
$$

  *****  SOME WEATHER IN NEARBY STATES *****

CITY           SKY/WX    TMP DP  RH WIND       PRES   REMARKS
GLASGOW MT     FAIR      42  32  67 NW8       29.77S
GREAT FALLS MT FAIR      48  27  44 W17       29.85S
CHEYENNE WY    FAIR      60  27  28 SE5       29.70F
SCOTTSBLUFF NE FAIR      48  36  63 W5        29.67F
OMAHA NE       CLOUDY    53  33  46 SE23G29   29.92F
DES MOINES IA  CLOUDY    44  28  53 SE17G26   30.08F
DAVENPORT IA   CLOUDY    39  23  52 SE17      30.25F
CHICAGO IL     PTSUNNY   39  20  46 S14       30.37F
EAU CLAIRE WI    N/A     36  19  50 S14       30.13F
LA CROSSE WI   CLOUDY    39  21  48 SE15G24   30.18F
$$

  *****  SOME NATIONAL WEATHER *****

CITY           SKY/WX    TMP DP  RH WIND       PRES   REMARKS
LA GUARDIA NY  FAIR      34   1  24 NW9       30.60F
RALEIGH NC     FAIR      47  17  30 E8        30.61S
ATLANTA GA     FAIR      58  38  47 E17G23    30.44R
NEW ORLEANS LA FAIR      78  62  57 SE12      30.22R
OKLAHOMA CITY  FAIR      71  58  63 S28G39    29.95F
ALBUQUERQUE NM FAIR      62  20  19 S17       29.85F
SALT LAKE CITY RAIN      40  38  93 NW16      29.81R
LOS ANGELES CA FAIR      60  37  42 NW12G23   30.08R
BOISE ID       FAIR      42  31  64 NW17      30.01R
SEATTLE WA     PTSUNNY   44  37  76 SE7       30.08S
$$

*** WEATHER ACROSS MANITOBA...SASKATCHEWAN AND ONTARIO ***
                ***ONTARIO***

CITY           SKY/WX    TMP DP  RH WIND       PRES   REMARKS
GERALDTON      CLOUDY    30  21  69 S10G18    30.08F WCI  21
THUNDER BAY    CLOUDY    32  27  80 S13       30.12F WCI  22
SIOUX LOOKOUT  CLOUDY    32  21  64 S12G18    29.88F WCI  23
TORONTO        PTSUNNY   32  12  43 S5        30.58F
BIG TROUT LK   CLOUDY    27  21  80 S14G21    29.75F WCI  15
PICKLE LAKE    FLURRIES  27  21  80 S15G24    29.86F WCI  15
DRYDEN         CLOUDY    34  23  64 S18G24    29.87F WCI  23
KENORA         PTSUNNY   36  21  55 S18G29    29.84F
$$
                *** MANITOBA***

CITY           SKY/WX    TMP DP  RH WIND       PRES   REMARKS
BRANDON        PTSUNNY   30  27  86 W8        29.75R WCI  23
DAUPHIN        SUNNY     37  30  75 W17       29.73R
ISLAND LAKE    LGT SNOW  28  27  93 S10       29.61F WCI  19
PILOT MOUND      N/A     32  28  86 SW7         N/A
THE PAS        CLOUDY    25  19  80 NW17      29.71R WCI  11
THOMPSON       FLURRIES  25  21  86 N9        29.63R WCI  15
WINNIPEG       PTSUNNY   36  28  75 S21G26    29.77F
LYNN LAKE      MOSUNNY   21  16  79 NE12G20   29.74R WCI   9
CHURCHILL      CLOUDY    14   9  79 N13G18    29.79R WCI   0
GILLAM         LGT SNOW  23  21  93 NE6       29.66S WCI  16
$$
                ***SASKATCHEWAN***

CITY           SKY/WX    TMP DP  RH WIND       PRES   REMARKS
ESTEVAN        PTSUNNY   36  32  87 W7        29.76R
KINDERSLEY     MOSUNNY   30  25  80 SE7       29.78R WCI  23
LLOYDMINSTER   CLOUDY    25  25 100 VRB2      29.79R FOG
PRINCE ALBERT  PTSUNNY   25  18  74 NW8       29.80R WCI  16
REGINA         CLOUDY    32  30  93 NW9       29.79S WCI  24
YORKTON        MOSUNNY   32  25  74 W13       29.77R WCI  22
N. BATTLEFORD  CLOUDY    21 N/A N/A NW8       29.84R WCI  12
LA RONGE       PTSUNNY   23  16  74 NW9G17    29.80R WCI  13
SASKATOON      PTSUNNY   27  21  80 N8        29.83R WCI  18
SWIFT CURRENT  MOSUNNY   39  37  93 SE6       29.75R
$$
NOTE: THESE ARE AUTOMATED STATIONS WITH LIMITED QUALITY CONTROL
      "FAIR" INDICATES FEW OR NO CLOUDS BELOW 12,000 FEET WITH NO
      SIGNIFICANT WEATHER AND/OR OBSTRUCTIONS TO VISIBILITY.
      SKY/WX - SKY CONDITION AND SIGNIFICANT WEATHER.
      TMP - AIR TEMPERATURE.    DP   - DEWPOINT TEMPERATURE.
      RH  - RELATIVE HUMIDITY.  PRES - PRESSURE.
      HX  - HEAT INDEX.         WCI  - WIND CHILL INDEX.
$




USA.gov is the U.S. government's official web portal to all federal, state and local government web resources and services.